2023/10/17 00:00:00, 1.6,12.0
2023/10/17 00:10:00, 1.4,12.0
2023/10/17 00:20:00, 1.4,11.8
2023/10/17 00:30:00, 1.5,11.5
2023/10/17 00:40:00, 1.6,11.5
2023/10/17 00:50:00, 1.6,11.3
2023/10/17 01:00:00, 1.7,11.7
2023/10/17 01:10:00, 1.7,11.6
2023/10/17 01:20:00, 1.7,11.2
2023/10/17 01:30:00, 1.8,11.3
2023/10/17 01:40:00, 0.0,11.2
2023/10/17 01:50:00, 0.0,10.9
2023/10/17 02:00:00, 0.0,10.8
2023/10/17 02:10:00,---,10.7
2023/10/17 02:20:00, 0.0,10.7
2023/10/17 02:30:00, 0.0,10.9
2023/10/17 02:40:00, 0.0,11.3
2023/10/17 02:50:00, 0.0,11.0
2023/10/17 03:00:00, 1.8,10.6
2023/10/17 03:10:00, 0.0,10.6
2023/10/17 03:20:00, 0.0,10.5
2023/10/17 03:30:00, 0.0,10.3
2023/10/17 03:40:00, 0.0,10.3
2023/10/17 03:50:00, 0.0,10.1
2023/10/17 04:00:00, 0.0,10.1
2023/10/17 04:10:00, 0.0,10.1
2023/10/17 04:20:00, 0.0,10.1
2023/10/17 04:30:00,---, 9.9
2023/10/17 04:40:00, 0.0, 9.8
2023/10/17 04:50:00, 0.0, 9.9
2023/10/17 05:00:00, 0.0,10.0
2023/10/17 05:10:00, 0.0,10.1
2023/10/17 05:20:00, 0.0,10.2
2023/10/17 05:30:00, 1.7,10.2
2023/10/17 05:40:00, 1.6,10.1
2023/10/17 05:50:00, 1.8, 9.9
2023/10/17 06:00:00, 0.0, 9.9
2023/10/17 06:10:00, 0.0, 9.8
2023/10/17 06:20:00, 1.8, 9.7
2023/10/17 06:30:00, 1.6,10.0
2023/10/17 06:40:00, 1.5, 9.9
2023/10/17 06:50:00, 0.0,10.1
2023/10/17 07:00:00, 0.0,10.4
2023/10/17 07:10:00, 0.0,11.0
2023/10/17 07:20:00, 0.0,11.6
2023/10/17 07:30:00, 0.0,12.1
2023/10/17 07:40:00,---,13.0
2023/10/17 07:50:00, 1.7,13.3
2023/10/17 08:00:00, 1.3,13.7
2023/10/17 08:10:00, 1.0,14.1
2023/10/17 08:20:00, 0.9,14.5
2023/10/17 08:30:00, 0.8,15.3
2023/10/17 08:40:00, 0.7,15.4
2023/10/17 08:50:00, 0.6,16.3
2023/10/17 09:00:00, 0.6,16.1
2023/10/17 09:10:00, 0.4,16.2
2023/10/17 09:20:00, 0.4,16.4
2023/10/17 09:30:00, 0.3,16.5
2023/10/17 09:40:00, 0.2,17.3
2023/10/17 09:50:00, 0.0,18.7
2023/10/17 10:00:00, 0.0,18.8
2023/10/17 10:10:00, 0.0,19.1
2023/10/17 10:20:00, 0.0,18.5
2023/10/17 10:30:00, 0.0,19.1
2023/10/17 10:40:00, 0.0,19.9
2023/10/17 10:50:00, 0.0,19.0
2023/10/17 11:00:00, 0.0,18.6
2023/10/17 11:10:00, 0.0,19.5
2023/10/17 11:20:00, 0.0,21.0
2023/10/17 11:30:00, 0.0,20.9
2023/10/17 11:40:00, 0.0,21.4
2023/10/17 11:50:00, 0.0,21.1
2023/10/17 12:00:00, 0.1,20.0
2023/10/17 12:10:00, 0.0,19.5
2023/10/17 12:20:00, 0.1,18.7
2023/10/17 12:30:00, 0.0,19.9
2023/10/17 12:40:00, 0.1,19.0
2023/10/17 12:50:00, 0.0,19.6
2023/10/17 13:00:00, 0.0,18.8
2023/10/17 13:10:00, 0.0,19.6
2023/10/17 13:20:00, 0.0,20.8
2023/10/17 13:30:00, 0.0,20.6
2023/10/17 13:40:00, 0.0,21.0
2023/10/17 13:50:00, 0.1,20.8
2023/10/17 14:00:00, 0.2,21.4
2023/10/17 14:10:00, 0.3,21.3
2023/10/17 14:20:00, 0.3,20.4
2023/10/17 14:30:00, 0.0,23.2
2023/10/17 14:40:00, 0.0,24.5
2023/10/17 14:50:00, 0.0,24.0
2023/10/17 15:00:00, 0.0,25.2
2023/10/17 15:10:00, 0.1,24.0
2023/10/17 15:20:00, 0.2,23.4
2023/10/17 15:30:00, 0.2,24.3
2023/10/17 15:40:00, 0.4,26.0
2023/10/17 15:50:00, 0.4,25.9
2023/10/17 16:00:00, 0.4,25.5
2023/10/17 16:10:00, 0.4,24.5
2023/10/17 16:20:00, 0.5,21.3
2023/10/17 16:30:00, 0.4,20.6
2023/10/17 16:40:00, 0.4,19.3
2023/10/17 16:50:00, 0.6,18.1
2023/10/17 17:00:00, 0.7,17.0
2023/10/17 17:10:00, 0.8,15.3
2023/10/17 17:20:00, 0.8,14.5
2023/10/17 17:30:00, 0.7,14.1
2023/10/17 17:40:00, 0.8,13.7
2023/10/17 17:50:00, 0.8,13.5
2023/10/17 18:00:00, 0.8,13.2
2023/10/17 18:10:00, 0.9,12.9
2023/10/17 18:20:00, 1.0,12.8
2023/10/17 18:30:00, 1.0,12.5
2023/10/17 18:40:00, 1.0,12.4
2023/10/17 18:50:00, 1.1,12.7
2023/10/17 19:00:00, 1.0,12.8
2023/10/17 19:10:00, 1.0,13.0
2023/10/17 19:20:00, 0.9,13.1
2023/10/17 19:30:00, 0.9,13.0
2023/10/17 19:40:00, 0.8,12.8
2023/10/17 19:50:00, 0.8,13.1
2023/10/17 20:00:00, 0.8,12.7
2023/10/17 20:10:00, 0.8,12.4
2023/10/17 20:20:00, 1.0,12.2
2023/10/17 20:30:00, 1.1,12.0
2023/10/17 20:40:00, 1.3,12.3
2023/10/17 20:50:00, 1.3,11.5
2023/10/17 21:00:00, 1.3,11.7
2023/10/17 21:10:00, 1.3,12.0
2023/10/17 21:20:00, 1.3,11.6
2023/10/17 21:30:00, 1.1,11.5
2023/10/17 21:40:00, 0.9,11.3
2023/10/17 21:50:00, 0.9,11.4
2023/10/17 22:00:00, 0.9,11.1
2023/10/17 22:10:00, 0.9,11.3
2023/10/17 22:20:00, 1.0,11.6
2023/10/17 22:30:00, 1.1,11.0
2023/10/17 22:40:00, 1.3,10.5
2023/10/17 22:50:00, 1.3,10.9
2023/10/17 23:00:00, 1.4,10.8
2023/10/17 23:10:00, 1.7,10.9
2023/10/17 23:20:00, 1.7,10.9
2023/10/17 23:30:00, 1.6,10.8
2023/10/17 23:40:00, 1.3,10.8
2023/10/17 23:50:00, 1.3,10.8
